Bakersfield, CA

1:45 AM PDT on June 28, 2017 (GMT -0700)
Meadows

Weather History for KBFL - February, 2014

Change the Weather History Date:

Wednesday, February 26, 2014

  Actual Average Record
Temperature  
Mean Temperature 60 °F 55 °F  
Max Temperature 68 °F 66 °F 80 °F (1992)
Min Temperature 51 °F 45 °F 30 °F (1971)
Degree Days  
Heating Degree Days 5    
Month to date heating degree days 218  
Since 1 July heating degree days 1325  
Cooling Degree Days 0    
Month to date cooling degree days 0  
Year to date cooling degree days 9  
Growing Degree Days 11 (Base 50)    
Moisture  
Dew Point 44 °F    
Average Humidity 57    
Maximum Humidity 71    
Minimum Humidity 42    
Precipitation  
Precipitation 0.01 in 0.04 in 0.69 in (1918)
Month to date precipitation 0.05 1.15  
Year to date precipitation 0.17 2.31  
Since 1 July precipitation 1.24  
Snow  
Snow 0.00 in - - ()
Month to date snowfall 0.0  
Since 1 July snowfall 0.0  
Snow Depth 0.00 in    
Sea Level Pressure  
Sea Level Pressure 29.92 in    
Wind  
Wind Speed 7 mph (East)    
Max Wind Speed 24 mph    
Max Gust Speed 30 mph    
Visibility 10 miles    
Events Rain    
T = Trace of Precipitation, MM = Missing Value Source: NWS Daily Summary

Daily Weather History Graph

Daily Weather History Graph

Search for Another Location

Airport or City:

Trip Planner

Search our weather history database for the weather conditions in past years. The results will help you decide how hot, cold, wet, or windy it might be!

Date:

Astronomy

Feb. 26, 2014 Rise Set
Actual Time 6:29 AM PST 5:49 PM PST
Civil Twilight 6:04 AM PST 6:14 PM PST
Nautical Twilight 5:34 AM PST 6:44 PM PST
Astronomical Twilight 5:05 AM PST 7:13 PM PST
Moon 4:15 AM PST (2/26) 3:13 PM PST (2/26)
Length of Visible Light 12h 10m
Length of Day
11h 19m
Waning Crescent, 9% of the Moon is Illuminated
Feb 26
Waning Crescent
Mar 1
New
Mar 8
First Quarter
Mar 16
Full
Mar 23
Last Quarter

Hourly Weather History & Observations

Time (PST) Temp. Dew Point Humidity Pressure Visibility Wind Dir Wind Speed Gust Speed Precip Events Conditions
12:54 AM 61.0 °F 41.0 °F 48% 29.91 in 10.0 mi East 6.9 mph - N/A   Partly Cloudy
1:54 AM 59.0 °F 37.9 °F 46% 29.90 in 10.0 mi Calm Calm - N/A   Clear
2:54 AM 55.0 °F 37.0 °F 51% 29.91 in 10.0 mi West 4.6 mph - N/A   Partly Cloudy
3:54 AM 54.0 °F 39.0 °F 57% 29.91 in 10.0 mi North 11.5 mph - N/A   Clear
4:54 AM 54.0 °F 44.1 °F 69% 29.94 in 10.0 mi North 17.3 mph - N/A   Clear
5:54 AM 55.0 °F 44.1 °F 67% 29.95 in 8.0 mi NNE 16.1 mph - N/A   Clear
6:54 AM 55.9 °F 44.1 °F 64% 29.97 in 10.0 mi North 10.4 mph - N/A   Clear
7:54 AM 57.9 °F 44.1 °F 60% 29.99 in 10.0 mi North 8.1 mph - N/A   Clear
8:54 AM 57.9 °F 43.0 °F 58% 30.00 in 10.0 mi ESE 6.9 mph - N/A   Clear
9:54 AM 57.0 °F 45.0 °F 64% 30.01 in 8.0 mi SSW 6.9 mph - 0.00 in   Overcast
10:54 AM 57.0 °F 48.0 °F 72% 30.03 in 7.0 mi East 5.8 mph - 0.01 in Rain Light Rain
11:54 AM 59.0 °F 50.0 °F 72% 30.01 in 9.0 mi ESE 9.2 mph - 0.00 in   Partly Cloudy
12:54 PM 62.1 °F 46.9 °F 58% 29.98 in 10.0 mi SE 6.9 mph - N/A   Mostly Cloudy
1:54 PM 66.0 °F 44.1 °F 45% 29.93 in 10.0 mi WNW 3.5 mph - N/A   Scattered Clouds
2:54 PM 68.0 °F 44.1 °F 42% 29.93 in 10.0 mi Variable 3.5 mph - N/A   Partly Cloudy
3:54 PM 66.9 °F 44.1 °F 44% 29.91 in 10.0 mi WSW 3.5 mph - N/A   Mostly Cloudy
4:54 PM 66.9 °F 44.1 °F 44% 29.89 in 10.0 mi SSE 3.5 mph - N/A   Scattered Clouds
5:54 PM 66.0 °F 45.0 °F 47% 29.88 in 10.0 mi Calm Calm - N/A   Overcast
6:54 PM 64.9 °F 46.0 °F 50% 29.88 in 10.0 mi Calm Calm - 0.00 in Rain Light Rain
7:54 PM 64.0 °F 46.9 °F 54% 29.87 in 10.0 mi ESE 4.6 mph - 0.00 in Rain Light Rain
8:54 PM 64.0 °F 46.0 °F 52% 29.84 in 10.0 mi East 8.1 mph - 0.00 in   Mostly Cloudy
9:54 PM 63.0 °F 48.0 °F 58% 29.84 in 10.0 mi SE 9.2 mph - 0.00 in Rain Light Rain
10:54 PM 63.0 °F 48.9 °F 60% 29.81 in 10.0 mi SE 19.6 mph - 0.00 in Rain Light Rain
11:54 PM 64.0 °F 45.0 °F 50% 29.81 in 10.0 mi SE 12.7 mph - 0.00 in   Mostly Cloudy